Location: Cuzcurrita-R�o Tir�n
(42.5415°N, 2.9642°W)
Time: 01:07:55
(UTC+00:00)

Cosmos 1606 Rocket - Pass Details

Date: 17 January 2021
Orbit: 604 x 631 km, 82.5° (Epoch: 08 March)

Event Time Altitude Azimuth Distance (km) Brightness Sun altitude
Rises 17:38:28 0° 2° (N) 2,885 6.7 -6.2°
Reaches altitude 10° 17:40:56 10° 13° (NNE) 1,980 5.8 -6.6°
Maximum altitude 17:44:46 29° 75° (ENE) 1,131 4.4 -7.2°
Drops below altitude 10° 17:48:37 10° 136° (SE) 1,982 5.9 -7.9°
Sets 17:51:04 0° 147° (SSE) 2,888 6.9 -8.3°
